Time,TemperatureF,DewpointF,PressureIn,WindDirection,WindDirectionDegrees,WindSpeedMPH,WindSpeedGustMPH,Humidity,HourlyPrecipIn,Conditions,Clouds,dailyrainin,SoftwareType,DateUTC
2013-04-13 00:10:00,80.2,75.0,29.87,East,101,2.0,14.0,83,0.00,,,0.00,weatherlink.com 1.10,2013-04-13 04:10:00,
2013-04-13 00:25:00,80.3,74.0,29.87,East,85,10.0,18.0,82,0.00,,,0.00,weatherlink.com 1.10,2013-04-13 04:25:00,
2013-04-13 00:40:00,80.3,75.0,29.86,ESE,110,12.0,17.0,83,0.00,,,0.00,weatherlink.com 1.10,2013-04-13 04:40:00,
2013-04-13 00:55:00,80.1,74.0,29.86,ESE,118,12.0,16.0,82,0.00,,,0.00,weatherlink.com 1.10,2013-04-13 04:55:00,
2013-04-13 01:10:00,80.1,74.0,29.86,ENE,73,5.0,15.0,82,0.00,,,0.00,weatherlink.com 1.10,2013-04-13 05:10:00,
2013-04-13 01:26:00,80.0,74.0,29.85,East,89,7.0,15.0,83,0.00,,,0.00,weatherlink.com 1.10,2013-04-13 05:26:00,
2013-04-13 01:41:00,80.0,74.0,29.85,ESE,107,4.0,15.0,83,0.00,,,0.00,weatherlink.com 1.10,2013-04-13 05:41:00,
2013-04-13 01:56:00,80.1,75.0,29.85,East,91,6.0,16.0,83,0.00,,,0.00,weatherlink.com 1.10,2013-04-13 05:56:00,
2013-04-13 02:11:00,80.1,75.0,29.84,NE,53,5.0,12.0,84,0.00,,,0.00,weatherlink.com 1.10,2013-04-13 06:11:00,
2013-04-13 03:11:00,79.8,75.0,29.82,ESE,107,2.0,11.0,84,0.00,,,0.00,weatherlink.com 1.10,2013-04-13 07:11:00,
2013-04-13 04:41:00,80.1,75.0,29.83,NE,54,10.0,16.0,83,0.00,,,0.00,weatherlink.com 1.10,2013-04-13 08:41:00,
2013-04-13 05:11:00,80.2,75.0,29.84,East,92,5.0,15.0,83,0.00,,,0.00,weatherlink.com 1.10,2013-04-13 09:11:00,
2013-04-13 05:26:00,80.2,75.0,29.85,ENE,69,8.0,14.0,83,0.00,,,0.00,weatherlink.com 1.10,2013-04-13 09:26:00,
2013-04-13 05:41:00,80.2,75.0,29.85,ENE,67,5.0,15.0,83,0.00,,,0.00,weatherlink.com 1.10,2013-04-13 09:41:00,
2013-04-13 06:11:00,80.3,74.0,29.86,East,82,5.0,17.0,82,0.00,,,0.00,weatherlink.com 1.10,2013-04-13 10:11:00,
2013-04-13 06:41:00,80.3,74.0,29.87,East,79,14.0,16.0,82,0.00,,,0.00,weatherlink.com 1.10,2013-04-13 10:41:00,
2013-04-13 07:11:00,80.7,75.0,29.87,East,98,9.0,16.0,82,0.00,,,0.00,weatherlink.com 1.10,2013-04-13 11:11:00,
2013-04-13 07:26:00,81.1,75.0,29.87,ENE,78,4.0,15.0,82,0.00,,,0.00,weatherlink.com 1.10,2013-04-13 11:26:00,
2013-04-13 07:56:00,81.9,75.0,29.88,ESE,102,12.0,16.0,80,0.00,,,0.00,weatherlink.com 1.10,2013-04-13 11:56:00,
2013-04-13 08:12:00,82.3,76.0,29.88,ESE,107,7.0,22.0,80,0.00,,,0.00,weatherlink.com 1.10,2013-04-13 12:12:00,
2013-04-13 08:26:00,82.8,76.0,29.89,East,92,6.0,16.0,80,0.00,,,0.00,weatherlink.com 1.10,2013-04-13 12:26:00,
2013-04-13 08:56:00,83.6,77.0,29.89,ESE,119,10.0,18.0,79,0.00,,,0.00,weatherlink.com 1.10,2013-04-13 12:56:00,
2013-04-13 09:12:00,83.7,76.0,29.90,ENE,70,7.0,17.0,78,0.00,,,0.00,weatherlink.com 1.10,2013-04-13 13:12:00,
2013-04-13 09:42:00,84.9,77.0,29.90,East,82,17.0,17.0,76,0.00,,,0.00,weatherlink.com 1.10,2013-04-13 13:42:00,
2013-04-13 09:57:00,85.2,77.0,29.89,East,97,14.0,23.0,75,0.00,,,0.00,weatherlink.com 1.10,2013-04-13 13:57:00,
2013-04-13 10:12:00,85.6,77.0,29.89,ESE,107,13.0,22.0,75,0.00,,,0.00,weatherlink.com 1.10,2013-04-13 14:12:00,
2013-04-13 10:27:00,85.7,76.0,29.89,ENE,74,11.0,21.0,73,0.00,,,0.00,weatherlink.com 1.10,2013-04-13 14:27:00,
2013-04-13 10:42:00,85.8,77.0,29.89,ENE,74,5.0,25.0,74,0.00,,,0.00,weatherlink.com 1.10,2013-04-13 14:42:00,
2013-04-13 10:57:00,86.0,76.0,29.89,SSE,165,6.0,21.0,72,0.00,,,0.00,weatherlink.com 1.10,2013-04-13 14:57:00,
2013-04-13 11:12:00,85.7,76.0,29.89,East,98,6.0,24.0,72,0.00,,,0.00,weatherlink.com 1.10,2013-04-13 15:12:00,
2013-04-13 11:27:00,86.1,76.0,29.89,ESE,108,9.0,25.0,72,0.00,,,0.00,weatherlink.com 1.10,2013-04-13 15:27:00,
2013-04-13 11:42:00,85.9,76.0,29.88,ENE,69,4.0,24.0,72,0.00,,,0.00,weatherlink.com 1.10,2013-04-13 15:42:00,
2013-04-13 11:57:00,86.0,76.0,29.88,East,94,10.0,22.0,71,0.00,,,0.00,weatherlink.com 1.10,2013-04-13 15:57:00,
2013-04-13 12:12:00,86.6,76.0,29.88,ENE,61,13.0,17.0,71,0.00,,,0.00,weatherlink.com 1.10,2013-04-13 16:12:00,
2013-04-13 12:27:00,86.4,76.0,29.87,East,94,16.0,23.0,70,0.00,,,0.00,weatherlink.com 1.10,2013-04-13 16:27:00,
2013-04-13 12:42:00,86.2,76.0,29.86,NE,34,8.0,20.0,72,0.00,,,0.00,weatherlink.com 1.10,2013-04-13 16:42:00,
2013-04-13 12:57:00,86.5,76.0,29.86,ESE,117,10.0,23.0,71,0.00,,,0.00,weatherlink.com 1.10,2013-04-13 16:57:00,
2013-04-13 13:27:00,86.0,76.0,29.84,East,91,10.0,19.0,72,0.00,,,0.00,weatherlink.com 1.10,2013-04-13 17:27:00,
2013-04-13 13:42:00,86.4,76.0,29.83,ENE,57,9.0,25.0,71,0.00,,,0.00,weatherlink.com 1.10,2013-04-13 17:42:00,
2013-04-13 13:57:00,86.1,75.0,29.82,NE,41,13.0,24.0,70,0.00,,,0.00,weatherlink.com 1.10,2013-04-13 17:57:00,
2013-04-13 14:27:00,86.7,75.0,29.81,ESE,113,11.0,21.0,69,0.00,,,0.00,weatherlink.com 1.10,2013-04-13 18:27:00,
2013-04-13 14:42:00,86.2,76.0,29.80,ENE,61,12.0,21.0,71,0.00,,,0.00,weatherlink.com 1.10,2013-04-13 18:42:00,
2013-04-13 14:57:00,85.9,75.0,29.80,East,86,10.0,27.0,70,0.00,,,0.00,weatherlink.com 1.10,2013-04-13 18:57:00,
2013-04-13 15:12:00,85.8,75.0,29.80,East,79,14.0,21.0,71,0.00,,,0.00,weatherlink.com 1.10,2013-04-13 19:12:00,
2013-04-13 15:27:00,85.5,75.0,29.79,ENE,59,17.0,23.0,71,0.00,,,0.00,weatherlink.com 1.10,2013-04-13 19:27:00,
2013-04-13 15:42:00,85.1,75.0,29.79,ENE,74,5.0,21.0,72,0.00,,,0.00,weatherlink.com 1.10,2013-04-13 19:42:00,
2013-04-13 15:57:00,85.1,75.0,29.79,SE,125,3.0,22.0,72,0.00,,,0.00,weatherlink.com 1.10,2013-04-13 19:57:00,
2013-04-13 16:12:00,85.4,75.0,29.78,NE,53,10.0,23.0,71,0.00,,,0.00,weatherlink.com 1.10,2013-04-13 20:12:00,
2013-04-13 16:27:00,84.7,75.0,29.78,NNE,26,7.0,18.0,73,0.00,,,0.00,weatherlink.com 1.10,2013-04-13 20:27:00,
2013-04-13 16:42:00,85.1,75.0,29.77,ESE,105,8.0,24.0,72,0.00,,,0.00,weatherlink.com 1.10,2013-04-13 20:42:00,
2013-04-13 16:57:00,84.7,75.0,29.76,NE,52,14.0,20.0,72,0.00,,,0.00,weatherlink.com 1.10,2013-04-13 20:57:00,
2013-04-13 17:12:00,83.9,74.0,29.76,NE,53,4.0,24.0,73,0.00,,,0.00,weatherlink.com 1.10,2013-04-13 21:12:00,
2013-04-13 17:27:00,83.9,75.0,29.76,East,94,11.0,19.0,74,0.00,,,0.00,weatherlink.com 1.10,2013-04-13 21:27:00,
2013-04-13 17:42:00,83.5,75.0,29.76,NE,52,17.0,22.0,76,0.00,,,0.00,weatherlink.com 1.10,2013-04-13 21:42:00,
2013-04-13 17:57:00,83.1,75.0,29.77,East,97,10.0,24.0,77,0.00,,,0.00,weatherlink.com 1.10,2013-04-13 21:57:00,
2013-04-13 18:12:00,82.4,75.0,29.76,ENE,68,15.0,21.0,79,0.00,,,0.00,weatherlink.com 1.10,2013-04-13 22:12:00,
2013-04-13 18:27:00,82.1,75.0,29.76,NE,55,3.0,19.0,80,0.00,,,0.00,weatherlink.com 1.10,2013-04-13 22:27:00,
2013-04-13 18:42:00,81.7,75.0,29.77,ENE,71,12.0,21.0,81,0.00,,,0.00,weatherlink.com 1.10,2013-04-13 22:42:00,
2013-04-13 18:57:00,81.4,75.0,29.77,ENE,75,11.0,17.0,82,0.00,,,0.00,weatherlink.com 1.10,2013-04-13 22:57:00,
2013-04-13 19:12:00,81.3,75.0,29.77,ENE,76,9.0,24.0,82,0.00,,,0.00,weatherlink.com 1.10,2013-04-13 23:12:00,
2013-04-13 19:27:00,81.2,75.0,29.78,ESE,106,12.0,22.0,82,0.00,,,0.00,weatherlink.com 1.10,2013-04-13 23:27:00,
2013-04-13 19:42:00,81.2,76.0,29.79,East,83,11.0,17.0,83,0.00,,,0.00,weatherlink.com 1.10,2013-04-13 23:42:00,
2013-04-13 19:57:00,81.1,76.0,29.80,NE,48,8.0,18.0,83,0.00,,,0.00,weatherlink.com 1.10,2013-04-13 23:57:00,
2013-04-13 20:12:00,81.0,75.0,29.80,East,91,9.0,16.0,82,0.00,,,0.00,weatherlink.com 1.10,2013-04-14 00:12:00,
2013-04-13 20:27:00,81.0,75.0,29.80,East,84,7.0,21.0,82,0.00,,,0.00,weatherlink.com 1.10,2013-04-14 00:27:00,
2013-04-13 20:42:00,81.0,75.0,29.81,ENE,59,10.0,17.0,82,0.00,,,0.00,weatherlink.com 1.10,2013-04-14 00:42:00,
2013-04-13 20:57:00,81.1,74.0,29.82,NE,51,11.0,18.0,80,0.00,,,0.00,weatherlink.com 1.10,2013-04-14 00:57:00,
2013-04-13 21:12:00,81.2,75.0,29.83,East,94,5.0,14.0,81,0.00,,,0.00,weatherlink.com 1.10,2013-04-14 01:12:00,
2013-04-13 21:27:00,81.2,75.0,29.84,ENE,66,14.0,19.0,82,0.00,,,0.00,weatherlink.com 1.10,2013-04-14 01:27:00,
2013-04-13 21:42:00,81.1,76.0,29.85,ENE,71,11.0,17.0,84,0.00,,,0.00,weatherlink.com 1.10,2013-04-14 01:42:00,
2013-04-13 21:57:00,80.9,76.0,29.85,ENE,78,10.0,15.0,85,0.00,,,0.00,weatherlink.com 1.10,2013-04-14 01:57:00,
2013-04-13 22:12:00,80.8,76.0,29.86,ENE,58,4.0,18.0,85,0.00,,,0.00,weatherlink.com 1.10,2013-04-14 02:12:00,
2013-04-13 22:27:00,80.8,76.0,29.86,ENE,75,3.0,15.0,86,0.00,,,0.00,weatherlink.com 1.10,2013-04-14 02:27:00,
2013-04-13 22:42:00,80.7,76.0,29.86,East,88,2.0,18.0,86,0.00,,,0.00,weatherlink.com 1.10,2013-04-14 02:42:00,
2013-04-13 22:57:00,80.6,76.0,29.86,ENE,57,10.0,15.0,85,0.00,,,0.00,weatherlink.com 1.10,2013-04-14 02:57:00,
2013-04-13 23:12:00,80.7,76.0,29.85,East,92,11.0,19.0,84,0.00,,,0.00,weatherlink.com 1.10,2013-04-14 03:12:00,
2013-04-13 23:27:00,80.7,75.0,29.85,ENE,59,12.0,19.0,83,0.00,,,0.00,weatherlink.com 1.10,2013-04-14 03:27:00,
2013-04-13 23:42:00,80.7,75.0,29.85,ENE,78,12.0,16.0,82,0.00,,,0.00,weatherlink.com 1.10,2013-04-14 03:42:00,
2013-04-13 23:57:00,80.7,75.0,29.84,ENE,58,5.0,15.0,83,0.00,,,0.00,weatherlink.com 1.10,2013-04-14 03:57:00,